Amsterdam, Netherlands

12:37 PM CET on December 05, 2016 (GMT +0100)
Amsterdam Airport Schiphol

Weather History for EHAM - October, 2012

Change the Weather History Date:

Saturday, October 13, 2012

  Actual Average Record
Temperature  
Mean Temperature 48 °F -  
Max Temperature 51 °F 57 °F 73 °F (2001)
Min Temperature 45 °F 46 °F 37 °F (2015)
Degree Days  
Heating Degree Days 17    
Moisture  
Dew Point 46 °F    
Average Humidity 92    
Maximum Humidity 100    
Minimum Humidity 82    
Precipitation  
Precipitation 0.28 in - - ()
Sea Level Pressure  
Sea Level Pressure 29.67 in    
Wind  
Wind Speed 10 mph ()    
Max Wind Speed 15 mph    
Max Gust Speed -    
Visibility 6.9 miles    
Events Rain    
Averages and records for this station are not official NWS values.
T = Trace of Precipitation, MM = Missing Value Source: Averaged Metar Reports

Daily Weather History Graph

Daily Weather History Graph

Search for Another Location

Airport or City:

Trip Planner

Search our weather history database for the weather conditions in past years. The results will help you decide how hot, cold, wet, or windy it might be!

Date:

Astronomy

Oct. 13, 2012 Rise Set
Actual Time 8:03 AM CEST 6:50 PM CEST
Civil Twilight 7:28 AM CEST 7:24 PM CEST
Nautical Twilight 6:49 AM CEST 8:03 PM CEST
Astronomical Twilight 6:09 AM CEST 8:42 PM CEST
Moon 5:21 AM CEST (10/13) 5:34 PM CEST (10/13)
Length of Visible Light 11h 55m
Length of Day
10h 47m
Waning Crescent, 6% of the Moon is Illuminated
Oct 13
Waning Crescent
Oct 15
New
Oct 22
First Quarter
Oct 29
Full
Nov 7
Last Quarter

Hourly Weather History & Observations

Time (CEST) Temp. Windchill Dew Point Humidity Pressure Visibility Wind Dir Wind Speed Gust Speed Precip Events Conditions
12:25 AM 48.2 °F - 42.8 °F 82% 29.80 in 6.2 mi SW 12.7 mph - N/A Rain Light Rain Showers
12:55 AM 46.4 °F 41.1 °F 42.8 °F 87% 29.80 in 6.2 mi SSW 11.5 mph - N/A   Scattered Clouds
1:25 AM 46.4 °F 40.7 °F 42.8 °F 87% 29.80 in 6.2 mi SSW 12.7 mph - N/A   Partly Cloudy
1:55 AM 46.4 °F 40.7 °F 44.6 °F 93% 29.80 in 6.2 mi SSW 12.7 mph - N/A   Partly Cloudy
2:00 AM 47 °F - 45 °F 89% 29.80 in 22 mi SSW 11.2 mph - -   Partly Cloudy
2:25 AM 46.4 °F 41.5 °F 44.6 °F 93% 29.80 in 6.2 mi SSW 10.4 mph - N/A   Scattered Clouds
2:55 AM 46.4 °F 41.5 °F 44.6 °F 93% 29.80 in 6.2 mi SSW 10.4 mph - N/A   Scattered Clouds
3:25 AM 48.2 °F - 44.6 °F 87% 29.80 in 6.2 mi SSW 10.4 mph - N/A   Scattered Clouds
3:55 AM 48.2 °F - 46.4 °F 93% 29.80 in 6.2 mi SSW 11.5 mph - N/A   Partly Cloudy
4:25 AM 48.2 °F - 46.4 °F 93% 29.77 in 6.2 mi SSW 10.4 mph - N/A   Partly Cloudy
4:55 AM 48.2 °F - 46.4 °F 93% 29.77 in 6.2 mi South 10.4 mph - N/A   Partly Cloudy
5:00 AM 48 °F - 46 °F 89% 29.79 in 15 mi South 8.9 mph - -   Overcast
5:25 AM 48.2 °F - 46.4 °F 93% 29.77 in 6.2 mi South 11.5 mph - N/A   Partly Cloudy
5:55 AM 48.2 °F - 46.4 °F 93% 29.77 in 6.2 mi SSW 11.5 mph - N/A Rain Light Rain
6:25 AM 48.2 °F - 46.4 °F 93% 29.77 in 6.2 mi SSW 8.1 mph - N/A Rain Light Rain
6:55 AM 48.2 °F - 46.4 °F 93% 29.74 in 6.2 mi SSE 8.1 mph - N/A   Mostly Cloudy
7:25 AM 46.4 °F 41.5 °F 46.4 °F 100% 29.74 in 6.2 mi South 10.4 mph - N/A   Scattered Clouds
7:55 AM 46.4 °F 40.4 °F 44.6 °F 93% 29.74 in 6.2 mi South 13.8 mph - N/A   Mostly Cloudy
8:00 AM 47 °F - 45 °F 89% 29.76 in 11 mi South 13.4 mph - -   Partly Cloudy
8:25 AM 46.4 °F 42.4 °F 44.6 °F 93% 29.74 in 6.2 mi SSE 8.1 mph - N/A   Mostly Cloudy
8:55 AM 48.2 °F - 44.6 °F 87% 29.74 in 6.2 mi SSE 9.2 mph - N/A   Mostly Cloudy
9:25 AM 48.2 °F - 44.6 °F 87% 29.74 in 6.2 mi SSE 11.5 mph - N/A   Mostly Cloudy
9:55 AM 48.2 °F - 46.4 °F 93% 29.71 in 6.2 mi South 10.4 mph - N/A   Mostly Cloudy
10:25 AM 50.0 °F - 46.4 °F 87% 29.71 in 6.2 mi South 12.7 mph - N/A   Mostly Cloudy
10:55 AM 50.0 °F - 46.4 °F 87% 29.71 in 6.2 mi South 11.5 mph - N/A   Mostly Cloudy
11:00 AM 49 °F - 47 °F 88% 29.74 in 12 mi South 11.2 mph - -   Overcast
11:25 AM 50.0 °F - 48.2 °F 94% 29.71 in 6.2 mi South 11.5 mph - N/A   Mostly Cloudy
11:55 AM 50.0 °F - 48.2 °F 94% 29.71 in 6.2 mi South 9.2 mph - N/A Rain Light Rain
12:25 PM 50.0 °F - 48.2 °F 94% 29.68 in 6.2 mi South 10.4 mph - N/A Rain Light Rain
12:55 PM 51.8 °F - 48.2 °F 88% 29.68 in 5.6 mi SSE 9.2 mph - N/A Rain Light Rain
1:25 PM 50.0 °F - 48.2 °F 94% 29.68 in 5.0 mi SSE 11.5 mph - N/A Rain Light Rain Showers
1:55 PM 50.0 °F - 48.2 °F 94% 29.65 in 6.2 mi SSE 13.8 mph - N/A Rain Light Rain
2:00 PM 51 °F - 49 °F 91% 29.66 in 9 mi SSE 13.4 mph - - Rain Drizzle
2:25 PM 50.0 °F - 48.2 °F 94% 29.62 in 6.2 mi SSE 11.5 mph - N/A Rain Light Rain
2:55 PM 50.0 °F - 48.2 °F 94% 29.62 in 4.3 mi South 10.4 mph - N/A Rain Rain Showers
3:25 PM 50.0 °F - 48.2 °F 94% 29.62 in 5.0 mi SSW 4.6 mph - N/A Rain Rain Showers
3:55 PM 50.0 °F - 48.2 °F 94% 29.62 in 6.2 mi WSW 8.1 mph - N/A   Mostly Cloudy
4:25 PM 50.0 °F - 48.2 °F 94% 29.59 in 6.2 mi SSW 5.8 mph - N/A   Partly Cloudy
4:55 PM 50.0 °F - 48.2 °F 94% 29.59 in 6.2 mi South 8.1 mph - N/A   Scattered Clouds
5:00 PM 50 °F - 48 °F 91% 29.60 in 19 mi South 6.7 mph - -   Partly Cloudy
5:25 PM 50.0 °F - 48.2 °F 94% 29.56 in 6.2 mi South 6.9 mph - N/A Rain Light Rain
5:55 PM 50.0 °F - 46.4 °F 87% 29.56 in 6.2 mi South 10.4 mph - N/A Rain Light Rain
6:25 PM 48.2 °F - 46.4 °F 93% 29.56 in 6.2 mi South 10.4 mph - N/A   Scattered Clouds
6:55 PM 48.2 °F - 46.4 °F 93% 29.56 in 6.2 mi South 10.4 mph - N/A   Mostly Cloudy
7:25 PM 48.2 °F - 48.2 °F 100% 29.56 in 6.2 mi South 9.2 mph - N/A Rain Rain Showers
7:55 PM 46.4 °F 41.9 °F 44.6 °F 93% 29.56 in 5.6 mi SSW 9.2 mph - N/A Rain Rain
8:00 PM 47 °F - 45 °F 91% 29.57 in 7 mi SSW 8.9 mph - - Rain Light Rain Showers
8:25 PM 48.2 °F - 46.4 °F 93% 29.53 in 6.2 mi SW 9.2 mph - N/A Rain Light Rain Showers
8:55 PM 48.2 °F - 46.4 °F 93% 29.53 in 6.2 mi SSW 12.7 mph - N/A Rain Rain Showers
9:25 PM 48.2 °F - 46.4 °F 93% 29.53 in 6.2 mi SSW 10.4 mph - N/A Rain Light Rain
9:55 PM 48.2 °F - 44.6 °F 87% 29.53 in 6.2 mi SW 13.8 mph - N/A Rain Light Rain Showers
10:25 PM 46.4 °F 40.7 °F 44.6 °F 93% 29.53 in 6.2 mi SW 12.7 mph - N/A Rain Rain Showers
10:55 PM 46.4 °F 41.5 °F 44.6 °F 93% 29.53 in 6.2 mi SSW 10.4 mph - N/A Rain Light Rain Showers
11:00 PM 47 °F - 44 °F 86% 29.55 in 13 mi SSW 8.9 mph - - Rain Light Rain
11:25 PM 46.4 °F 41.1 °F 44.6 °F 93% 29.53 in 6.2 mi SW 11.5 mph - N/A Rain Light Rain Showers
11:55 PM 46.4 °F 40.1 °F 44.6 °F 93% 29.53 in 6.2 mi SW 15.0 mph - N/A Rain Rain Showers